Location: Dompnac
(44.5644°N, 4.1026°E)
Time: 22:38:09
(UTC+00:00)

Cosmos 1626 - Pass Details

Date: 22 January 2021
Orbit: 490 x 494 km, 82.5° (Epoch: 25 February)

Event Time Altitude Azimuth Distance (km) Brightness Sun altitude
Rises 17:25:59 0° 213° (SSW) 2,564 6.7 -8.5°
Reaches altitude 10° 17:28:18 10° 226° (SW) 1,687 6.0 -8.9°
Maximum altitude 17:31:29 27° 286° (WNW) 982 4.3 -9.5°
Drops below altitude 10° 17:34:41 10° 345° (NNW) 1,697 4.8 -10.0°
Sets 17:37:03 0° 358° (N) 2,584 5.6 -10.4°
